User: anonymous
Location: Young's Pond
(41.2695°N, 72.7766°W)
Time: 11:10:13
(UTC-04:00)
Language:

Spot 4 - Orbit

View from above orbital plane
View from above orbital plane
View from above satellite
View from above satellite

Ground track
Ground track

The orbit data is extracted from the following two-line orbital elements,

1 25260U 98017A   14294.14512192  .00000682  00000-0  17627-3 0  4723
2 25260 098.4474 359.0544 0013063 015.9356 344.2248 14.53054572860945
Epoch (UTC): 21 October 2014 03:28:58
Eccentricity: 0.0013063
inclination: 98.4474°
perigee height: 706 km
apogee height: 725 km
right ascension of ascending node: 359.0544°
argument of perigee: 15.9356°
revolutions per day: 14.53054572
mean anomaly at epoch: 344.2248°
orbit number at epoch: 86094

The dashed part of the orbit path shows where the satellite is in the earth's shadow,  

DLR